Temperature
16 16 17 17 14 12 13 14 15 16 16 17 17 16 15 14 15 14 13 13 13 13 13 13 13 13 14 14 14 14 14 14 14 14 14 14 15 15 15 15 15 15 15 14 14 15 14 14 14
16 16 16 16 12 13 13 14 15 15 16 17 16 16 14 14 14 13 13 13 13 13 13 13 13 13 13 13 13 13 13 13 13 14 14 14 14 14 14 15 15 15 14 14 14 14 14 14 14
15 16 16 12 12 13 14 14 14 15 16 16 15 15 14 13 13 13 13 13 13 13 13 13 13 13 13 13 13 13 13 13 13 13 13 13 14 14 14 14 14 14 14 14 14 14 14 14 14
15 15 14 11 13 13 14 14 14 15 16 15 15 13 13 13 13 13 13 13 13 13 13 13 13 13 13 13 13 13 13 13 13 13 13 13 13 13 13 13 14 14 14 14 14 14 14 14 14
15 15 12 11 12 13 13 14 14 14 14 14 14 12 12 12 12 13 13 13 13 12 12 12 12 12 13 13 13 13 13 12 13 13 13 13 13 13 13 13 13 13 13 14 14 14 14 14 14
14 12 11 11 12 13 13 14 14 13 13 14 13 12 11 12 12 12 12 12 12 12 12 12 12 12 12 12 12 12 12 12 12 12 13 13 13 13 13 13 13 13 13 13 13 13 13 13 13
13 10 11 12 12 13 13 14 13 12 12 13 13 11 11 11 11 12 12 12 12 12 12 12 12 12 12 12 12 12 12 12 12 12 12 12 13 13 13 13 13 13 13 13 13 13 13 13 13
13 10 12 11 12 12 13 13 13 13 12 13 13 11 11 11 11 11 11 11 11 11 11 11 11 11 12 12 12 12 12 12 12 12 12 12 12 12 12 12 12 12 13 12 12 13 13 13 13
13 9 10 11 12 12 12 12 12 12 12 12 12 12 12 11 11 11 11 11 11 11 11 11 11 11 11 11 11 11 11 11 11 11 11 12 12 12 12 12 12 12 12 12 12 12 12 12 12
11 9 11 11 11 11 11 11 11 12 11 11 11 11 11 11 11 11 11 10 10 11 11 10 10 10 11 11 11 11 11 11 11 11 11 11 11 12 11 12 12 12 12 12 12 12 12 12 12
10 9 10 11 11 11 11 11 11 11 10 10 11 11 11 10 10 10 10 10 10 10 10 10 10 10 10 10 10 10 10 10 10 10 11 11 11 11 11 11 11 11 11 11 11 11 12 12 12
10 10 10 11 11 11 10 10 10 10 11 11 11 11 10 10 10 10 10 10 9 9 10 9 9 9 10 10 10 10 10 10 10 10 10 10 10 10 11 11 11 11 11 11 11 11 11 11 11
9 9 10 10 10 10 10 10 10 10 10 11 10 10 10 10 10 10 9 9 9 9 9 9 9 9 9 9 9 9 9 9 10 10 10 10 10 10 10 10 10 10 11 11 11 11 11 11 11
9 9 9 10 10 10 9 9 9 9 10 10 10 10 10 10 9 9 9 9 9 9 9 9 9 9 9 9 9 9 9 9 9 9 9 9 9 9 10 10 10 10 10 10 10 10 10 10 11
9 8 8 9 9 9 9 8 8 10 9 9 9 9 9 9 9 9 9 9 9 8 8 8 8 8 8 8 8 8 9 9 9 9 9 9 9 9 9 9 9 9 9 9 10 10 10 10 10
8 7 7 8 9 9 9 8 8 10 9 8 8 8 8 9 8 8 8 8 8 8 8 8 8 8 8 8 8 8 8 8 8 8 8 8 8 9 9 9 9 9 9 9 9 9 9 9 9
7 6 7 8 8 8 8 7 8 9 8 8 8 8 8 8 8 8 8 8 8 8 8 8 8 7 7 7 7 8 8 8 8 8 8 8 8 8 8 8 8 8 8 8 8 8 8 9 9
7 7 7 7 8 8 7 6 7 8 8 8 8 8 8 8 8 8 8 8 8 7 7 7 7 7 7 7 7 7 7 7 7 7 8 8 8 8 8 8 8 8 7 8 8 8 8 8 8
8 7 7 7 8 7 6 6 7 7 7 7 7 7 7 7 8 8 8 7 7 7 7 7 7 7 7 7 7 7 7 7 7 7 7 7 7 7 7 7 7 7 7 7 7 7 7 8 8
7 7 7 7 8 7 6 6 6 6 6 7 7 7 7 7 7 7 7 7 7 7 7 7 6 6 6 6 6 6 6 6 6 6 7 7 7 7 6 6 6 6 6 6 6 7 7 7 7
7 7 7 7 7 6 6 6 6 6 7 7 7 7 7 7 7 7 7 7 7 7 7 6 6 6 6 6 6 6 6 6 6 6 6 6 6 6 6 6 6 6 6 6 6 6 6 6 6
7 7 7 7 6 5 6 5 6 6 6 6 6 6 7 7 7 7 7 6 6 7 6 6 6 6 6 5 5 5 5 5 5 6 6 6 6 5 6 6 6 6 5 5 5 6 6 6 6
6 7 7 6 5 5 5 5 5 5 5 5 5 6 7 7 7 6 6 6 6 6 6 6 6 6 5 5 5 5 5 5 5 5 5 5 5 5 5 5 5 5 5 5 5 5 5 5 5
6 6 6 4 4 5 5 5 5 5 5 5 5 6 6 6 6 6 6 6 6 6 6 5 5 5 5 5 5 5 5 5 5 5 5 5 5 5 5 5 5 5 5 5 5 5 5 5 5
6 5 5 4 4 4 5 5 5 6 5 5 5 6 6 6 6 6 6 6 5 5 5 5 5 5 5 4 4 4 4 4 4 4 4 4 4 5 5 4 4 4 4 4 4 4 4 4 4
5 5 5 5 4 4 4 4 5 6 5 6 6 6 6 6 5 5 5 5 5 5 5 5 5 4 4 4 4 4 4 4 4 4 4 4 4 4 4 4 4 4 4 4 4 4 4 4 4
5 4 5 4 3 4 4 4 5 5 5 5 5 5 5 5 5 5 5 5 4 4 4 4 4 4 4 4 4 4 4 4 4 4 4 4 4 4 4 4 4 3 4 4 4 4 4 4 4
5 4 3 3 4 4 4 4 4 5 4 4 4 4 5 5 5 5 4 4 4 4 4 4 4 4 3 3 3 3 3 4 3 3 4 4 3 3 3 3 3 3 3 3 4 4 3 4 4
4 4 4 3 3 4 4 5 5 4 4 4 4 4 4 4 4 4 4 4 3 3 3 3 3 3 3 3 3 3 3 3 3 3 3 3 3 3 3 3 3 3 3 3 3 3 3 3 3
4 4 3 3 3 2 3 4 5 4 4 4 4 4 4 4 4 4 3 3 3 3 3 3 3 3 3 3 3 3 3 3 3 3 3 3 3 3 3 3 3 3 3 3 3 3 3 3 3
Wind_Speed
13 10 2 4 5 4 2 3 2 0 1 1 1 5 7 5 3 4 2 3 5 5 5 5 6 6 5 5 5 5 5 5 6 6 6 6 6 7 7 7 7 7 7 7 8 7 7 7 6
8 3 5 5 5 2 4 3 3 3 2 0 3 4 6 4 3 5 2 2 6 6 5 5 6 6 6 6 5 5 5 5 5 5 6 6 6 6 6 6 6 6 6 7 7 7 6 6 6
5 2 4 4 4 6 5 3 4 2 1 2 3 4 4 3 2 3 2 5 6 6 6 5 6 6 6 6 5 5 5 5 4 5 5 5 6 5 5 5 5 5 6 6 6 6 6 5 5
3 4 4 4 4 4 4 2 2 1 3 4 3 4 3 2 1 2 4 7 7 5 6 5 5 5 5 5 5 4 4 5 5 4 4 4 4 4 5 5 4 5 5 5 5 5 5 4 4
4 4 4 1 3 3 2 2 2 2 1 2 3 4 2 3 2 5 6 6 6 4 5 5 5 4 4 4 4 4 4 4 4 4 4 3 4 3 3 4 4 4 4 4 4 4 4 3 3
4 4 4 4 4 2 2 1 1 2 1 1 3 4 2 1 3 4 5 5 5 4 4 4 5 4 4 4 4 4 3 3 4 4 4 3 3 2 2 3 3 2 3 3 3 3 3 3 3
4 4 4 4 3 3 2 0 2 2 1 1 2 4 2 1 1 3 4 4 4 5 4 4 4 4 3 3 3 3 3 3 3 4 4 4 3 2 2 2 2 1 2 2 2 2 2 3 3
4 4 2 2 3 3 2 1 1 2 2 1 3 5 3 4 2 3 4 3 3 3 3 3 4 4 4 3 3 4 4 2 3 3 3 4 4 3 2 1 1 1 1 1 1 2 2 3 3
4 3 3 4 4 3 1 1 2 1 2 2 2 3 3 3 3 3 3 2 1 2 1 2 3 3 4 4 4 4 3 2 2 2 2 3 3 3 2 1 0 0 1 1 1 2 2 3 3
4 3 5 2 3 2 1 1 1 2 2 1 1 1 2 4 4 3 2 2 1 1 1 1 1 2 2 3 4 3 3 3 2 1 2 2 3 2 3 2 0 0 0 1 1 2 3 3 3
3 4 3 2 1 1 1 1 1 2 3 4 4 3 3 2 2 2 3 3 3 3 2 1 1 1 1 2 2 2 2 3 2 2 2 2 3 3 3 3 2 1 1 1 2 2 3 3 3
1 1 2 2 2 1 2 1 1 3 6 4 5 5 4 3 3 3 3 3 3 2 2 2 1 1 1 1 1 1 1 2 2 2 1 2 2 2 3 3 3 2 2 2 2 2 2 3 3
1 1 2 3 3 2 2 3 3 5 6 3 2 3 4 4 4 4 4 3 2 2 2 2 2 1 1 0 0 1 0 1 2 1 1 1 1 1 2 2 2 2 2 2 2 2 2 2 3
1 1 2 3 3 2 3 4 3 7 3 2 2 4 5 5 4 3 3 3 3 3 3 2 2 2 1 1 1 1 1 1 1 1 1 1 1 1 1 1 2 2 2 2 1 2 2 2 2
1 1 4 3 2 2 1 5 6 6 3 3 3 4 4 4 3 4 4 4 4 4 3 3 2 1 1 1 1 1 1 1 1 1 1 1 1 1 1 1 2 2 2 2 1 1 1 2 2
2 2 3 4 3 2 3 8 7 4 4 5 4 4 4 4 4 4 4 3 3 3 3 3 2 1 2 2 2 1 1 2 2 2 2 2 2 1 1 1 2 2 1 1 1 1 1 2 2
1 2 4 5 3 2 3 8 7 3 5 6 5 5 4 4 4 4 4 3 3 3 3 3 2 2 2 2 1 1 1 2 2 2 2 2 2 2 0 1 2 2 1 1 1 1 1 2 2
4 4 4 6 3 2 6 10 9 5 6 7 6 5 5 5 6 5 3 3 2 2 2 2 2 2 2 1 1 0 0 1 1 1 2 2 2 2 1 1 2 1 0 1 1 1 2 2 2
4 4 6 6 4 4 8 11 11 7 5 6 6 5 6 6 6 3 3 3 2 1 1 2 2 2 1 1 1 1 1 1 1 2 2 2 2 2 1 1 1 1 1 1 1 1 2 2 1
5 5 5 5 3 4 7 11 8 6 6 7 7 7 7 5 4 3 2 2 3 3 3 2 2 2 2 2 2 1 1 2 2 2 2 2 2 2 2 1 1 1 1 1 1 1 1 1 1
5 6 6 6 6 3 4 7 5 4 4 4 4 5 5 6 6 5 3 4 3 3 3 2 2 1 2 2 1 0 0 1 1 1 1 2 2 2 2 2 2 1 2 2 2 2 2 2 2
5 5 5 4 2 4 0 4 6 4 4 4 4 4 5 5 5 5 4 4 4 4 3 2 2 2 2 2 2 2 2 2 3 2 2 2 2 3 3 3 2 2 2 3 3 2 2 2 2
5 3 3 2 2 3 2 3 7 2 4 6 5 5 5 5 5 6 6 5 4 3 3 2 2 2 2 2 3 3 2 3 2 2 2 2 2 3 3 3 2 2 2 3 3 2 2 2 3
2 3 3 3 2 3 4 4 6 3 5 5 5 5 5 4 4 4 4 3 2 2 2 2 2 2 2 2 2 3 3 3 3 3 3 3 2 2 3 3 3 3 3 3 3 3 3 3 3
2 3 3 4 2 5 2 3 7 6 5 5 5 4 4 3 2 2 2 2 2 2 2 2 2 2 2 2 2 3 4 4 4 4 4 3 3 3 4 3 3 3 3 4 3 3 3 4 4
2 4 4 3 4 5 2 5 6 4 4 4 3 3 2 2 2 2 3 2 2 2 2 2 3 3 3 3 3 3 3 3 3 4 4 4 4 4 4 3 3 4 4 4 3 3 4 3 4
3 3 3 3 1 3 5 6 6 2 3 2 1 2 2 3 2 2 2 2 2 3 3 3 3 3 3 3 3 3 4 3 3 4 3 3 4 3 3 3 3 4 4 3 3 3 4 4 4
3 4 3 2 2 4 5 5 4 5 5 3 3 3 3 3 3 3 2 2 2 3 3 3 2 3 3 3 3 3 3 3 3 3 3 4 4 4 3 3 3 3 3 3 3 4 4 4 4
3 2 2 2 3 3 4 6 4 5 5 4 4 4 4 3 3 3 3 3 2 2 2 2 2 3 3 3 3 3 3 3 3 3 3 4 3 3 4 4 3 3 3 3 3 4 4 4 4
4 5 5 3 4 3 3 7 5 4 4 3 4 4 4 3 3 2 2 3 3 3 3 3 3 3 3 3 2 3 2 2 3 3 3 3 4 4 4 3 3 3 3 3 4 4 4 5 5
Wind_Direction
331 334 30 55 61 62 223 251 229 294 352 306 30 92 103 95 113 150 164 109 106 110 106 101 83 69 65 74 71 70 70 68 68 66 65 65 64 64 64 68 72 72 71 71 69 71 70 68 69
331 353 49 64 103 146 248 240 212 232 206 132 53 82 85 83 83 109 106 113 107 104 95 87 78 70 60 59 70 69 66 70 68 66 66 63 62 65 64 67 72 71 69 68 63 63 68 65 62
335 47 82 88 137 181 204 206 198 240 338 52 44 51 92 107 103 132 158 128 98 84 82 79 80 69 61 55 58 68 67 63 65 67 66 63 58 58 64 71 75 74 72 69 63 58 61 62 58
45 50 62 91 190 220 199 211 203 150 23 41 79 63 58 20 147 160 127 107 95 78 77 78 79 71 61 56 55 61 66 60 56 62 67 63 56 55 58 64 74 81 76 71 65 59 55 50 49
59 80 86 129 219 236 227 230 163 125 84 22 80 98 78 350 58 103 101 98 102 87 81 79 70 64 60 52 54 52 60 58 52 49 57 64 58 50 55 65 71 86 83 74 64 58 47 41 36
57 77 118 200 213 235 274 288 122 98 96 36 87 111 148 344 82 98 101 105 110 103 87 79 66 54 42 38 40 38 45 52 47 44 39 43 53 42 62 69 59 86 91 78 66 54 39 26 14
105 112 169 189 190 225 255 345 125 132 109 255 130 123 164 267 169 121 113 109 107 106 88 65 58 54 41 28 21 22 25 44 42 40 32 28 22 33 49 61 53 70 96 80 67 48 28 12 1
122 113 156 189 183 219 284 44 88 134 198 292 107 138 191 228 207 121 106 96 89 89 84 68 52 42 32 28 20 9 6 24 40 30 26 23 21 7 9 28 45 48 65 73 48 28 4 355 349
89 92 190 203 186 213 329 61 349 337 88 30 47 165 196 162 133 109 95 75 69 62 78 84 60 43 32 30 18 6 355 340 12 28 27 28 21 8 351 357 16 34 40 44 36 12 3 353 346
87 155 211 224 179 191 259 71 318 27 15 355 358 349 129 129 131 139 148 163 188 240 265 117 100 59 42 30 20 12 7 340 344 3 20 27 18 5 2 344 310 320 345 359 356 355 4 358 350
125 178 211 263 214 176 220 303 318 149 241 226 220 211 166 151 155 187 208 203 211 222 230 212 173 88 67 46 29 17 13 356 349 1 13 29 26 11 10 6 353 352 353 5 342 355 354 351 345
133 236 212 247 303 278 221 232 282 217 230 234 205 182 172 181 202 212 220 227 224 217 229 227 193 139 94 52 23 27 18 354 348 352 18 47 27 13 6 2 353 2 349 349 355 348 340 337 325
177 261 282 284 310 272 249 238 233 245 243 245 183 172 193 206 220 226 223 223 223 226 234 245 221 199 177 103 353 34 9 326 316 359 342 32 47 3 345 343 339 336 338 336 338 336 326 325 317
217 250 285 284 284 271 242 267 237 253 228 217 192 200 210 217 220 227 233 230 232 236 238 241 240 221 174 171 240 243 259 297 300 331 323 336 348 342 314 324 328 316 310 303 300 303 299 299 311
53 4 318 275 247 244 213 288 238 239 205 222 220 206 214 225 224 229 232 229 229 230 229 237 239 237 212 217 232 243 249 272 275 278 296 319 303 275 281 268 305 301 305 309 323 319 317 305 308
50 42 299 275 218 220 175 261 259 231 194 224 225 211 219 236 234 238 235 229 226 226 233 238 248 252 239 226 224 238 243 269 269 270 284 286 284 280 312 265 286 302 321 334 303 288 296 303 304
36 272 256 273 230 193 206 254 265 242 207 228 225 215 222 243 251 251 242 228 226 225 234 239 234 227 245 238 221 217 219 254 265 267 276 284 277 270 310 288 298 311 331 310 298 313 271 286 304
229 242 249 251 247 233 247 258 270 260 231 231 225 223 229 234 244 244 240 227 226 227 230 223 232 232 230 238 210 167 244 267 273 261 258 261 271 271 270 296 316 319 285 307 301 295 299 269 277
218 229 256 256 260 252 249 264 271 263 241 228 229 230 236 241 250 240 227 219 216 232 235 228 224 233 211 219 190 180 246 258 266 257 252 254 266 268 255 271 301 306 265 261 263 270 297 303 305
245 255 263 283 278 259 271 275 270 256 234 218 221 227 234 244 263 256 246 230 226 227 230 228 220 228 211 207 204 201 216 242 250 261 267 259 251 246 250 234 247 241 255 280 290 279 263 295 328
250 229 240 267 313 308 312 302 272 268 238 233 226 227 229 227 233 243 238 232 234 240 235 236 228 246 234 215 195 126 33 340 311 282 268 262 247 237 231 230 228 228 233 237 244 240 228 255 290
256 237 238 259 307 284 246 287 279 269 272 265 257 252 242 242 235 234 233 234 233 240 238 227 227 234 238 205 187 184 209 243 256 249 250 273 260 244 233 225 220 226 229 239 244 240 238 225 248
236 269 262 253 216 290 264 228 283 280 271 268 260 259 258 249 236 235 232 230 236 238 229 226 228 241 237 211 199 197 222 246 259 260 256 265 266 257 248 235 223 229 234 235 235 241 244 232 232
260 2 27 42 75 275 231 197 276 245 236 262 258 259 263 260 249 248 245 234 238 237 223 217 223 248 238 215 209 214 223 239 251 253 249 258 265 268 257 247 235 235 235 236 236 233 236 242 238
68 83 22 353 332 255 232 203 252 248 238 231 241 252 261 255 246 256 259 251 256 254 238 229 223 250 251 235 238 239 233 228 233 243 241 245 256 269 261 257 245 246 243 237 228 230 237 238 238
201 150 164 215 241 281 300 233 251 262 271 256 246 247 265 266 264 266 261 248 251 260 256 239 231 245 241 235 247 248 238 239 242 239 241 242 245 251 253 243 245 252 253 249 232 229 235 236 237
163 193 182 162 257 277 268 273 295 275 315 311 306 321 284 270 275 280 284 276 261 258 259 248 236 244 248 249 256 257 241 242 253 253 249 250 248 255 253 243 244 247 248 243 235 233 235 235 239
165 152 110 141 221 268 280 268 260 273 282 302 314 304 293 281 286 290 295 288 283 272 271 262 235 235 244 245 246 261 255 249 249 249 251 251 254 255 259 251 248 249 252 251 240 242 238 234 245
167 163 163 171 191 207 270 272 240 245 255 267 277 288 289 281 278 288 302 304 296 298 285 273 259 258 253 249 255 259 269 270 259 249 249 248 249 247 254 250 248 248 255 257 248 247 240 236 247
189 184 161 174 237 211 233 269 275 259 269 265 283 303 310 305 290 290 303 311 309 303 296 289 278 268 263 255 253 255 264 268 265 253 250 252 247 247 249 244 248 249 253 256 252 253 250 240 242
Height
1512 1513 1514 1516 1520 1531 1533 1526 1521 1519 1518 1517 1516 1516 1517 1521 1524 1531 1528 1526 1526 1527 1527 1527 1527 1527 1527 1526 1526 1525 1525 1524 1524 1523 1523 1522 1522 1522 1522 1522 1522 1522 1522 1522 1522 1522 1522 1522 1522
1512 1513 1515 1516 1526 1537 1533 1524 1521 1518 1517 1517 1517 1517 1518 1521 1523 1525 1525 1525 1526 1526 1526 1526 1526 1526 1526 1525 1525 1524 1524 1524 1523 1522 1522 1522 1521 1521 1521 1521 1521 1521 1521 1521 1521 1521 1521 1521 1521
1511 1513 1515 1519 1528 1532 1526 1520 1519 1517 1517 1517 1517 1518 1520 1523 1524 1524 1525 1525 1526 1526 1526 1526 1526 1525 1524 1524 1524 1524 1523 1523 1522 1522 1521 1521 1520 1520 1520 1520 1520 1520 1520 1520 1520 1520 1520 1520 1520
1512 1514 1516 1523 1526 1523 1519 1518 1517 1517 1516 1517 1518 1520 1522 1524 1524 1524 1524 1524 1525 1525 1525 1525 1525 1524 1524 1523 1523 1522 1522 1521 1521 1520 1520 1520 1519 1519 1519 1519 1519 1519 1519 1519 1519 1519 1519 1519 1519
1511 1513 1520 1526 1524 1520 1518 1517 1517 1517 1517 1518 1518 1521 1523 1524 1524 1524 1524 1524 1524 1524 1525 1524 1524 1524 1523 1522 1522 1521 1521 1521 1520 1519 1519 1518 1518 1517 1517 1517 1517 1518 1518 1518 1518 1518 1518 1518 1518
1512 1514 1525 1528 1523 1519 1517 1517 1516 1517 1518 1518 1519 1521 1522 1524 1523 1523 1523 1523 1523 1523 1523 1523 1523 1522 1522 1521 1521 1520 1520 1519 1519 1518 1518 1517 1517 1516 1516 1516 1516 1516 1516 1516 1516 1516 1517 1517 1517
1512 1517 1522 1522 1522 1520 1517 1516 1517 1517 1517 1518 1518 1520 1522 1522 1522 1522 1522 1522 1522 1522 1522 1522 1521 1521 1520 1520 1519 1519 1518 1518 1517 1516 1516 1516 1515 1515 1514 1514 1514 1515 1515 1514 1515 1515 1515 1515 1515
1512 1517 1520 1522 1521 1519 1517 1517 1517 1517 1517 1518 1518 1519 1520 1521 1521 1521 1521 1521 1521 1521 1520 1520 1520 1519 1518 1518 1517 1517 1516 1516 1516 1515 1514 1514 1514 1513 1513 1512 1512 1513 1513 1512 1512 1513 1513 1513 1513
1512 1520 1522 1519 1519 1518 1516 1516 1517 1517 1517 1517 1517 1518 1518 1519 1519 1520 1519 1519 1519 1518 1518 1518 1518 1517 1517 1516 1515 1515 1515 1514 1514 1513 1512 1512 1512 1511 1511 1511 1511 1511 1510 1510 1510 1510 1510 1511 1511
1512 1521 1518 1516 1516 1516 1516 1516 1516 1516 1516 1516 1516 1516 1516 1517 1517 1517 1516 1516 1516 1516 1516 1515 1515 1515 1514 1514 1513 1513 1512 1512 1511 1511 1510 1510 1510 1509 1509 1508 1509 1508 1508 1508 1508 1508 1508 1508 1509
1513 1517 1516 1515 1514 1515 1515 1515 1515 1515 1515 1514 1513 1513 1514 1514 1514 1514 1514 1514 1513 1513 1513 1513 1513 1513 1512 1512 1511 1510 1510 1509 1509 1509 1508 1508 1507 1507 1506 1506 1506 1506 1506 1506 1506 1506 1506 1506 1506
1514 1514 1514 1514 1514 1514 1514 1514 1514 1513 1512 1512 1512 1512 1511 1511 1511 1511 1511 1511 1511 1511 1510 1510 1510 1510 1510 1509 1508 1507 1507 1507 1506 1506 1506 1505 1505 1504 1504 1504 1504 1504 1504 1503 1503 1504 1504 1504 1504
1514 1514 1514 1513 1513 1513 1513 1513 1513 1510 1510 1510 1510 1510 1509 1509 1509 1509 1509 1509 1508 1508 1507 1507 1507 1507 1506 1506 1505 1505 1504 1504 1503 1503 1503 1503 1503 1502 1502 1501 1501 1502 1502 1501 1501 1501 1502 1501 1501
1514 1514 1514 1513 1512 1512 1512 1511 1511 1507 1508 1508 1507 1507 1507 1506 1506 1506 1506 1506 1505 1505 1504 1504 1504 1504 1503 1503 1502 1502 1502 1501 1501 1500 1501 1500 1500 1500 1499 1499 1499 1499 1499 1499 1499 1499 1499 1499 1499
1514 1515 1514 1512 1511 1511 1512 1512 1508 1505 1506 1505 1505 1504 1504 1504 1504 1503 1503 1503 1502 1502 1501 1501 1501 1500 1500 1500 1499 1499 1499 1499 1498 1498 1497 1497 1497 1497 1497 1496 1496 1496 1496 1496 1496 1496 1496 1496 1496
1515 1518 1519 1512 1511 1510 1515 1512 1504 1503 1504 1503 1502 1502 1502 1501 1501 1501 1501 1500 1500 1499 1498 1497 1497 1497 1497 1496 1496 1496 1496 1495 1495 1494 1494 1494 1495 1494 1493 1493 1493 1493 1493 1493 1493 1493 1493 1493 1493
1519 1522 1519 1514 1509 1510 1512 1509 1502 1502 1501 1501 1500 1499 1499 1499 1498 1498 1498 1497 1497 1496 1495 1494 1494 1493 1493 1493 1493 1493 1492 1492 1492 1491 1491 1491 1492 1491 1491 1490 1490 1490 1490 1490 1490 1490 1490 1490 1489
1520 1520 1517 1514 1509 1509 1510 1506 1500 1499 1499 1498 1497 1496 1496 1495 1495 1495 1495 1494 1494 1493 1492 1491 1490 1490 1490 1489 1489 1489 1490 1489 1489 1489 1488 1488 1488 1488 1488 1487 1486 1486 1486 1487 1487 1488 1487 1487 1487
1513 1515 1515 1511 1507 1508 1506 1503 1498 1495 1495 1494 1494 1493 1493 1492 1492 1493 1492 1492 1491 1490 1489 1488 1487 1487 1486 1486 1485 1485 1485 1486 1486 1486 1485 1485 1485 1485 1485 1484 1484 1483 1483 1484 1484 1484 1484 1484 1484
1512 1513 1513 1509 1506 1506 1504 1500 1495 1493 1491 1490 1490 1490 1490 1489 1490 1489 1489 1488 1488 1487 1486 1485 1484 1484 1484 1483 1483 1483 1483 1483 1483 1483 1482 1482 1482 1482 1481 1481 1481 1481 1481 1481 1481 1481 1481 1481 1482
1510 1510 1510 1509 1506 1504 1505 1501 1495 1490 1488 1487 1487 1486 1486 1486 1486 1486 1485 1485 1484 1483 1482 1482 1481 1481 1481 1481 1480 1480 1480 1479 1480 1479 1479 1479 1479 1478 1478 1478 1478 1477 1477 1478 1478 1478 1478 1478 1479
1509 1505 1505 1506 1511 1511 1509 1509 1495 1490 1487 1485 1484 1483 1483 1483 1483 1483 1482 1481 1481 1480 1480 1479 1479 1478 1478 1478 1478 1477 1476 1476 1476 1476 1476 1476 1475 1475 1475 1475 1474 1474 1474 1475 1475 1475 1475 1476 1475
1506 1503 1504 1505 1509 1512 1509 1511 1497 1490 1488 1484 1481 1481 1480 1480 1480 1479 1479 1478 1478 1477 1477 1476 1476 1476 1475 1475 1474 1474 1473 1473 1473 1473 1472 1472 1472 1472 1472 1471 1471 1471 1471 1471 1471 1472 1472 1472 1472
1505 1505 1506 1510 1513 1514 1507 1509 1498 1491 1484 1481 1478 1478 1477 1477 1477 1476 1476 1476 1475 1474 1474 1473 1473 1472 1472 1472 1471 1470 1470 1470 1469 1469 1469 1468 1468 1468 1468 1468 1468 1467 1467 1467 1468 1468 1469 1469 1469
1506 1511 1517 1518 1519 1512 1504 1503 1494 1482 1479 1477 1476 1475 1475 1475 1475 1474 1473 1472 1472 1471 1471 1470 1470 1469 1468 1468 1468 1467 1467 1466 1466 1465 1465 1465 1464 1464 1464 1464 1464 1464 1464 1464 1464 1465 1465 1465 1465
1507 1509 1517 1519 1519 1511 1504 1501 1487 1479 1477 1475 1475 1474 1474 1473 1473 1472 1471 1470 1469 1469 1468 1468 1467 1466 1465 1465 1465 1464 1464 1463 1462 1462 1462 1461 1460 1460 1461 1461 1461 1461 1460 1460 1461 1461 1461 1461 1461
1506 1509 1509 1516 1517 1515 1506 1497 1485 1478 1476 1474 1473 1473 1472 1471 1471 1470 1469 1468 1467 1466 1466 1465 1464 1463 1462 1462 1461 1461 1460 1459 1458 1458 1458 1457 1457 1457 1457 1457 1457 1457 1457 1457 1457 1457 1457 1457 1457
1505 1507 1513 1515 1514 1511 1502 1497 1489 1479 1476 1474 1472 1471 1470 1470 1469 1468 1467 1466 1465 1464 1464 1462 1461 1460 1460 1459 1458 1457 1456 1455 1454 1454 1453 1453 1454 1453 1453 1454 1453 1453 1453 1453 1453 1453 1453 1453 1453
1506 1507 1508 1513 1513 1512 1507 1494 1478 1476 1474 1473 1471 1470 1469 1468 1467 1466 1466 1465 1464 1462 1461 1459 1458 1457 1456 1455 1454 1453 1452 1451 1451 1450 1450 1450 1450 1450 1450 1450 1450 1449 1449 1449 1449 1449 1449 1449 1449
1502 1504 1508 1511 1512 1512 1510 1495 1475 1474 1472 1471 1470 1470 1468 1468 1467 1466 1464 1463 1461 1459 1458 1456 1455 1454 1453 1452 1450 1449 1448 1448 1447 1447 1446 1446 1446 1446 1446 1446 1446 1446 1446 1445 1445 1445 1445 1445 1444